Terminal Aerodrome Forecast
Issued by NWS San Angelo, TX

Home | Current Version | Previous Version | Text Only | Print | Product List | Glossary On
Versions: 1 2 3 4 5 6 7 8 9 10 11 12 13 14 15 16 17 18 19 20 21 22 23 24 25 26
000
FTUS44 KSJT 281900 AAB
TAFABI
TAF AMD
KABI 281927Z 2819/0118 VRB06KT P6SM OVC006
     FM282100 VRB06KT P6SM OVC012
     FM010300 VRB06KT 3SM -FZDZ BR OVC008=

USA.gov is the U.S. government's official web portal to all federal, state and local government web resources and services.